Location: Brede
(50.9167°N, 0.6000°E)
Time: 09:12:19
(UTC+00:00)

Tiros 1 - Pass Details

Date: 29 November 2020
Orbit: 630 x 663 km, 48.4° (Epoch: 16 January)

Event Time Altitude Azimuth Distance (km) Brightness Sun altitude
Rises 18:33:01 0° 271° (W) 2,991 12.0 -23.9°
Reaches altitude 10° 18:35:24 10° 268° (W) 2,075 10.8 -24.3°
Maximum altitude 18:40:07 61° 189° (S) 743 7.4 -25.0°
Enters shadow 18:40:15 61° 179° (S) 745 7.3 -25.0°
